Regional Weather Roundup
Issued by NWS

Current Version | Previous Version | Text Only | Print | Product List | Glossary On
Versions: 1 2 3 4 5 6 7 8 9 10 11 12 13 14 15 16 17 18 19 20 21 22 23 24 25 26 27 28 29 30 31 32 33 34 35 36 37 38 39 40 41 42 43 44 45 46 47 48 49 50
000
ASUS44 KOUN 231310
RWROK

WEATHER ROUNDUP FOR OKLAHOMA
NATIONAL WEATHER SERVICE NORMAN OK
800 AM CDT SAT JUL 23 2016

NOTE: "FAIR" INDICATES FEW OR NO CLOUDS BELOW 12,000 FEET WITH NO
      SIGNIFICANT WEATHER AND/OR OBSTRUCTIONS TO VISIBILITY.

OKZ001>007-009>012-014-015-017-231400-
NORTHWEST OKLAHOMA AND THE PANHANDLE

CITY           SKY/WX    TMP DP  RH WIND       PRES   REMARKS
GAGE           SUNNY     79  61  53 S16       29.98R
GUYMON         SUNNY     73  54  51 S12       29.98F
ENID/WOODRING  MOSUNNY   79  68  69 SE6       29.95R
$$

OKZ016-021>023-033>039-044-045-231400-
SOUTHWEST OKLAHOMA

CITY           SKY/WX    TMP DP  RH WIND       PRES   REMARKS
LAWTON/REGL    SUNNY     76  68  76 SE5       29.98R
LAWTON/FT SILL SUNNY     77  69  75 S3        29.98R
FREDERICK      SUNNY     77  67  71 SE7       29.96R
CLINTON        SUNNY     80  63  55 S10       30.01R
HOBART         SUNNY     79  65  62 S15       30.00R
ALTUS AFB      SUNNY     75  65  70 SE8       29.98R
$$

OKZ018>020-024>031-231400-
CENTRAL OKLAHOMA

CITY           SKY/WX    TMP DP  RH WIND       PRES   REMARKS
OKLAHOMA CITY  MOSUNNY   77  69  76 S6        29.99R
OKC/WILEY POST SUNNY     81  66  60 S12       29.99R
OKC/TINKER AFB SUNNY     77  68  72 S10       29.99R
STILLWATER     SUNNY     80  69  69 S6        29.97R
GUTHRIE        SUNNY     82  67  60 S8        29.97R
$$

OKZ008-013-054>072-231400-
NORTHEAST OKLAHOMA

CITY           SKY/WX    TMP DP  RH WIND       PRES   REMARKS
TULSA          MOSUNNY   83  72  69 S3        29.95R
TULSA/JONES    SUNNY     80  73  79 CALM      29.96S
PONCA CITY     MOSUNNY   82  68  62 MISG      29.96R
BARTLESVILLE   MOSUNNY   78  72  81 CALM      29.97R
MUSKOGEE       SUNNY     80  76  87 S6        29.98R
$$

OKZ032-040>043-046>053-073>077-231400-
SOUTH CENTRAL/SOUTHEAST OKLAHOMA

CITY           SKY/WX    TMP DP  RH WIND       PRES   REMARKS
ARDMORE/DWNTWN SUNNY     79  68  69 CALM      29.99R
MCALESTER      MOSUNNY   81  72  74 CALM      29.99R
$$





USA.gov is the U.S. government's official web portal to all federal, state and local government web resources and services.